Flag for Belgium Weather past 2 weeks in Eupen, Belgium

Now
65 °F

Partly sunny.


Feels Like: 65 °F
Forecast: 47 / 72 °F
Wind: 1 mph from Northwest

Location: Spa / La Sauveniere

Current Time: Jul 30, 2014 at 7:44:31 PM

Latest Report: Jul 30, 2014 at 7:00 PM


Visibility: 18 mi

Pressure: 29.95 "Hg

Humidity: 70%

Dew point: 55 °F

Location of EupenLocation

Historic Weather in Eupen — Graph

°F

Eupen temperature yesterday

Maximum temperature yesterday: 68 °F (at 5:00 PM)
Minimum temperature yesterday: 59 °F (at 5:00 AM)
Average temperature yesterday: 62 °F

Past Weeks' High & Low Weather Summary

 TemperatureHumidityPressure
High87 °F (Jul 18, 6:00 PM)100% (Jul 21, 5:00 AM)30.22 "Hg (Jul 21, 5:00 AM)
Low53 °F (Jul 26, 6:00 AM)32% (Jul 18, 4:00 PM)29.80 "Hg (Jul 19, 9:00 PM)
Average67 °F76%29.98 "Hg
* Reported Jul 15 6:00 PM — Jul 30 6:00 PM, Eupen, Weather by CustomWeather, © 2014

Note: Actual official high and low records may vary slightly from our data, if they occured in-between our weather recording intervals... More about our weather records

Advertising

Eupen weather history for previous 24 hours

 ConditionsComfort  
Time TempWeatherWind HumidityBarometerVisibility
6:00 PM
Jul 30
64 °FPartly sunny.3 mph73%29.96 "Hg22 mi
5:00 PM64 °FOvercast.3 mph75%29.96 "Hg17 mi
4:00 PM65 °FScattered clouds.5 mph71%29.95 "Hg19 mi
3:00 PM64 °FOvercast.5 mph76%29.95 "Hg19 mi
2:00 PM64 °FOvercast.5 mph72%29.95 "Hg25 mi
1:00 PM64 °FSunny.6 mph68%29.95 "Hg22 mi
12:00 PM62 °FOvercast.5 mph81%29.94 "Hg19 mi
11:00 AM62 °FPartly sunny.3 mph84%29.93 "Hg14 mi
10:00 AM58 °FLow clouds.5 mph95%29.93 "HgN/A
9:00 AM58 °FFog.6 mph98%29.92 "Hg1 mi
8:00 AM58 °FLow clouds.5 mph98%29.91 "Hg1 mi
7:00 AM58 °FDense fog.5 mph99%29.90 "Hg1 mi
6:00 AM58 °FDense fog.5 mph99%29.89 "Hg1 mi
5:00 AM60 °FDense fog.5 mph99%29.88 "Hg1 mi
4:00 AM61 °FLight rain. Dense fog.6 mph100%29.86 "Hg0 mi
3:00 AM62 °FDrizzle. Dense fog.6 mph100%29.86 "Hg0 mi
2:00 AM63 °FDrizzle. Dense fog.5 mph100%29.86 "Hg0 mi
1:00 AM63 °FLight rain. Dense fog.5 mph100%29.87 "Hg0 mi
12:00 AM62 °FLight rain. Low clouds.5 mph98%29.87 "Hg2 mi
11:00 PM
Jul 29
62 °FDense fog.3 mph99%29.87 "Hg0 mi
10:00 PM62 °FDense fog.2 mph100%29.85 "Hg0 mi
9:00 PM62 °FDense fog.3 mph100%29.86 "Hg0 mi
8:00 PM63 °FFog.1 mph98%29.84 "Hg3 mi
7:00 PM63 °FLight rain. Sunny.1 mph98%29.84 "Hg3 mi
Weather by CustomWeather, © 2014

See weather overviewHow to use our weather pages